sat.trackr.live / text

‹ back to catalog

MEASAT-3A

NORAD 35362 · 2009-032A

PAYLOAD ACTIVE UNKNOWN

§ Identity

Operator
Country
MALA
Launch date
2009-06-21
Launch site
TYMSC
Launch vehicle
Mass (kg)
RCS (m²)
31.62

Purposes: comms

External: N2YO · Heavens-Above · Gunter

§ Orbital elements

Epoch: 2026-05-25T02:47:28.294080Z

Period
1,436.10 min
Inclination
0.0316°
Eccentricity
0.0002966
Mean motion
1.00271319 rev/d
Perigee alt
35,774.2 km
Apogee alt
35,799.2 km
Semi-major
42,164.9 km
B*
0.0000e+0
RAAN
24.4442°
Arg perigee
35.6971°
Mean anomaly
24.4301°
Rev number
780

§ Raw data

MEASAT-3A1 35362U 09032A   26145.11629970 -.00000113  00000+0  00000+0 0  99902 35362   0.0316  24.4442 0002966  35.6971  24.4301  1.00271319  7808

JSON: /api/v1/satellites/35362 · /tle

For live sub-satellite position, see the globe view (requires WebGL).

§ Visibility from observer

Set your observer location to see the next 7 days of passes ≥ 10°. The values pass through the URL so the page stays shareable.

No JS? Fill the form by hand. The geolocation button needs JavaScript.